This is the latest recevied weather packets stored in our database for station/object W4ZHA. If no packets are shown the sender has not sent any weather packets the latest 10 day(s).
| Time | Temp. | Humidity | Pressure | Rain* | Wind** | Luminosity | Snow |
|---|---|---|---|---|---|---|---|
| 1787879342 | 25° C | 67% | 1014.4 hPa | 0 mm | - | 0 W/m² | - |
| 1787879038 | 25° C | 68% | 1014.4 hPa | 0 mm | - | 0 W/m² | - |
| 1787878738 | 26.11° C | 67% | 1014.4 hPa | 0 mm | - | 0 W/m² | - |
| 1787878437 | 26.11° C | 67% | 1014.4 hPa | 0 mm | - | 0 W/m² | - |
| 1787878133 | 26.11° C | 66% | 1014.4 hPa | 0 mm | - | 0 W/m² | - |
| 1787877829 | 26.11° C | 65% | 1014.1 hPa | 0 mm | - | 0 W/m² | - |
| 1787877523 | 26.67° C | 65% | 1014.1 hPa | 0 mm | - | 0 W/m² | - |
| 1787877220 | 26.67° C | 65% | 1014.1 hPa | 0 mm | - | 0 W/m² | - |
| 1787876919 | 27.22° C | 64% | 1013.8 hPa | 0 mm | - | 0 W/m² | - |
| 1787876615 | 27.78° C | 64% | 1014.1 hPa | 0 mm | - | 0 W/m² | - |
| 1787876314 | 27.78° C | 64% | 1014.1 hPa | 0 mm | - | 0 W/m² | - |
| 1787876013 | 27.78° C | 64% | 1013.8 hPa | 0 mm | - | 0 W/m² | - |
| 1787875709 | 28.33° C | 64% | 1013.8 hPa | 0 mm | - | 3 W/m² | - |
| 1787875407 | 28.33° C | 64% | 1014.1 hPa | 0 mm | - | 7 W/m² | - |
| 1787875107 | 28.89° C | 61% | 1013.8 hPa | 0 mm | - | 11 W/m² | - |
| 1787874802 | 28.89° C | 63% | 1014.1 hPa | 0 mm | - | 18 W/m² | - |
| 1787874500 | 29.44° C | 61% | 1013.8 hPa | 0 mm | - | 23 W/m² | - |
| 1787874195 | 30° C | 60% | 1014.1 hPa | 0 mm | - | 29 W/m² | - |
| 1787873890 | 30° C | 58% | 1013.8 hPa | 0 mm | - | 33 W/m² | - |
| 1787873589 | 30° C | 57% | 1014.1 hPa | 0 mm | - | 38 W/m² | - |
| 1787873285 | 30° C | 58% | 1014.4 hPa | 0 mm | - | 39 W/m² | - |
| 1787872983 | 30.56° C | 56% | 1014.1 hPa | 0 mm | - | 42 W/m² | - |
| 1787872679 | 30.56° C | 57% | 1014.1 hPa | 0 mm | - | 47 W/m² | - |
| 1787872375 | 30.56° C | 57% | 1014.1 hPa | 0 mm | - | 48 W/m² | - |
| 1787872075 | 31.11° C | 55% | 1014.1 hPa | 0 mm | - | 51 W/m² | - |
* Rain latest hour (hover to see other rain measurements)
** Current wind speed in m/s (hover to see current wind gust speed)